CAPE
644 726 710 733 688 539 882 1041 1078 1275 1336 1416 1498 1554 1559 1585 1672 1825 2010 1934 1937 1919 2010 1850 1667 1587 1796 1780 1700 1819 1904 1919 1944 1964 1822 1963 2306 2488 2650 2872 2822 2832 2787 2631 2641 3158 2783 2592 2427 2403 2434 2000 1810 1512 1305 1325 1583 676 499 1244 109 50 109 13 0 0 0 0 0 0 4 230 1388 1816 28 79 367 440 889 700 738 753 923 1245 1494
140 650 717 745 695 594 634 995 1098 1237 1354 1400 1426 1477 1460 1510 1605 1736 1942 1918 1901 1867 2020 1911 1670 1680 1767 1900 1647 1781 1793 1817 1910 1950 1835 1808 2421 2501 2704 2822 2847 2836 2699 2588 2698 2961 2796 2657 2523 2442 2375 1700 1486 1241 1096 1234 1195 392 339 114 122 1 0 1 0 0 0 0 0 1 58 0 2148 640 408 283 143 564 578 524 614 641 874 1131 1508
80 79 576 565 549 578 516 802 1061 1192 1308 1391 1432 1414 1388 1434 1621 1662 1887 1883 1865 1779 1930 2057 1817 1648 1730 1936 1874 1918 1789 1745 1805 1807 1758 1790 2581 2540 2724 2778 2799 2838 2836 2822 2868 2923 2782 2636 2544 2522 2059 1550 1446 1504 1026 754 250 376 126 22 29 535 778 578 0 0 0 2 160 33 1 0 96 0 0 0 85 414 416 426 383 338 673 1019 1358
65 65 69 67 205 464 522 730 909 1110 1248 1306 1396 1414 1403 1390 1512 1636 1804 1860 1829 1720 1936 2029 1954 1819 1700 1824 1984 2002 2038 2061 1924 1807 1685 2292 2615 2774 2699 2809 2838 2856 2971 2934 2891 2951 2858 2675 2584 2555 1702 1434 1395 1108 95 0 0 50 8 93 0 0 0 9 1033 0 0 0 27 28 0 8 1 0 0 0 134 268 26 18 105 98 459 634 714
82 66 80 105 195 235 426 700 836 993 1122 1222 1327 1379 1418 1415 1395 1544 1716 1863 1839 1734 1860 1942 2091 1969 1817 1879 1930 1998 2094 2101 2101 2078 1730 2365 2603 2832 2761 2828 2887 2830 2963 2960 2889 2977 2925 2779 2537 2382 1488 1362 1267 557 6 0 0 0 36 38 0 0 0 0 149 158 1 0 0 11 0 0 0 0 3 0 206 44 0 4 110 267 492 494 534
99 75 79 137 237 247 314 577 730 875 977 1088 1204 1268 1322 1417 1403 1492 1616 1854 1854 1743 1805 1873 2001 1968 1931 1906 1845 1874 1976 1984 1957 1989 1946 2137 2718 2763 2832 2830 2930 2827 2880 2874 2871 2921 2885 2774 2487 1913 1266 1127 1065 118 2 0 8 0 12 0 0 0 0 0 40 411 432 1088 35 0 0 0 13 0 0 0 0 12 0 0 9 234 472 506 513
124 98 95 154 272 307 325 467 659 810 898 950 1039 1077 1106 1322 1338 1520 1572 1855 1897 1837 1810 1922 1956 1925 1903 1875 1800 1745 1796 1880 1879 1887 2008 1947 2610 2814 2917 2859 2954 2821 2765 2759 2739 2871 2862 2674 2374 1373 996 998 940 109 3 0 9 0 16 0 0 123 0 6 1 5 1 175 217 36 721 261 0 0 0 0 0 0 2 0 0 0 127 132 103
193 159 142 172 252 385 378 399 557 689 865 860 931 949 916 1273 1136 1500 1561 1892 1946 1914 1843 1884 1888 1903 1865 1829 1801 1720 1663 1751 1842 1886 1950 1977 2444 2844 3056 3003 2932 2698 2586 2627 2643 2768 2840 2656 1832 1214 942 893 652 17 2 0 5 46 50 0 0 16 0 0 6 53 0 2 851 41 595 252 7 0 0 0 0 0 2 0 0 0 0 0 0
203 223 197 194 217 373 475 430 455 576 785 938 960 1037 929 1219 1175 1409 1616 1854 1935 1982 1902 1892 1909 1888 1878 1806 1815 1759 1692 1785 1891 1885 1854 1893 2372 2816 3040 3059 2944 2809 2720 2770 2819 2787 2649 2356 1512 1103 555 486 888 0 0 0 2 54 7 0 0 0 0 1 2 2 0 0 3 0 0 0 0 1 8 0 0 0 0 0 0 0 0 0 0
174 244 220 208 221 300 434 478 479 488 657 1042 1037 1129 1054 1159 1337 1237 1634 1864 1905 2015 1964 1913 1909 1892 1872 1823 1798 1769 1628 1743 1880 1856 1774 1802 2337 2800 2836 2961 2968 2978 3009 2920 2909 2600 2228 1728 1400 1020 551 474 836 1 0 0 0 6 0 0 0 5 176 48 1 0 0 0 0 0 0 8 0 0 0 0 0 0 0 0 0 0 0 0 0
121 219 235 214 221 250 354 451 502 483 594 992 1159 1209 1204 1165 1448 1354 1422 1823 1930 2002 2011 1929 1894 1869 1826 1804 1785 1756 1594 1550 1722 1758 1712 1766 2191 2724 2704 2760 2860 2933 2951 2924 2857 2477 2080 1558 1337 1059 665 743 850 12 4 5 0 0 0 0 0 5 0 4 694 212 47 116 0 0 0 0 0 0 0 0 0 0 0 0 0 0 0 0 0
59 165 259 237 203 209 281 390 455 646 648 934 1234 1330 1354 1296 1430 1574 1399 1586 1942 1995 2026 1998 1920 1883 1794 1751 1724 1779 1729 1545 1513 1550 1617 1494 1914 2555 2712 2607 2714 2827 2837 2852 2563 2157 2003 1490 1304 1150 856 639 528 2 3 0 0 0 0 0 0 0 0 31 366 104 8 3 3 0 0 0 0 0 0 0 0 0 0 0 0 0 0 0 48
16 111 233 277 249 217 237 345 394 382 742 805 1196 1407 1487 1444 1462 1632 1633 1520 1716 2044 2024 2010 1976 1931 1819 1733 1686 1703 1881 1750 1495 1387 1653 1562 1617 2261 2580 2585 2624 2722 2861 2750 2327 2016 1838 1286 1193 1065 874 649 474 0 6 0 0 0 0 0 0 0 6 36 41 8 12 0 0 1 0 0 0 0 0 0 0 0 0 0 0 0 0 0 0
1 36 149 286 311 267 237 318 424 431 439 661 1051 1383 1565 1594 1540 1625 1764 1733 1620 1827 2034 2003 1977 1943 1881 1755 1673 1649 1854 1932 1736 1514 1401 1710 1562 1916 2282 2355 2467 2574 2636 2426 2077 1897 1619 1230 1086 1051 870 690 564 472 3 2 1 0 0 0 3 20 0 30 2 8 0 4 0 4 1 0 0 0 0 0 0 0 0 0 0 0 0 0 0
14 20 68 208 334 319 298 322 458 496 457 596 881 1238 1549 1687 1656 1666 1753 1904 1830 1701 1853 1973 1963 1936 1884 1807 1722 1689 1784 1918 1901 1684 1491 1613 1623 1692 1975 1994 2104 2313 2310 2018 1888 1765 1522 1364 1103 991 895 781 664 496 20 19 22 5 2 1 32 10 17 20 6 8 29 16 11 0 0 0 0 0 0 0 0 0 0 0 0 0 0 0 0
92 78 56 100 285 355 341 330 475 543 649 654 804 1043 1410 1678 1739 1721 1722 1933 2030 1925 1752 1822 1906 1927 1935 1870 1816 1837 1910 1943 1922 1876 1623 1565 1620 1613 1768 1785 1798 1917 1952 1806 1762 1674 1516 1368 1096 1051 996 833 601 170 22 20 18 14 20 4 31 149 22 38 3 0 0 0 6 0 0 0 0 0 0 0 0 0 0 0 0 0 0 0 0
360 345 155 110 177 359 400 366 478 617 686 715 840 984 1267 1604 1803 1793 1749 1843 2077 2134 1945 1791 1783 1845 1940 1965 1936 1964 2050 2074 2005 1972 1936 1775 1659 1636 1680 1652 1700 1675 1701 1725 1726 1643 1452 1320 1127 1076 1005 886 676 336 59 29 19 43 38 24 2 156 32 21 7 0 0 0 0 0 0 0 0 14 8 2 0 0 0 0 0 0 0 0 0
401 378 250 202 194 336 426 417 501 694 768 789 902 1022 1218 1548 1850 1908 1859 1857 2012 2190 2171 2002 1834 1777 1816 1958 2027 2063 2148 2192 2126 2062 2057 1987 1836 1703 1743 1720 1689 1646 1579 1632 1629 1562 1395 1329 1180 1146 1050 843 831 473 245 64 30 43 25 42 14 58 86 7 26 4 0 0 4 2 0 0 1 27 2 9 3 0 0 0 0 0 0 0 0
372 430 412 409 307 369 470 582 605 756 843 854 928 1075 1265 1550 1899 2038 2022 1990 2032 2161 2246 2210 2063 1899 1820 1875 2024 2136 2216 2267 2230 2150 2127 2106 2023 1885 1844 1826 1727 1656 1506 1566 1540 1477 1381 1333 1226 1200 1045 812 808 625 262 70 49 55 50 25 26 42 32 9 2 24 4 0 0 0 0 0 0 0 0 0 3 0 0 0 0 0 0 0 0
350 391 473 485 504 528 566 657 672 790 908 915 990 1119 1318 1602 1986 2162 2190 2148 2134 2183 2276 2281 2231 2138 2046 1963 2000 2140 2263 2314 2314 2250 2194 2153 2160 2080 2008 1935 1803 1610 1493 1485 1405 1380 1368 1305 1248 1208 1074 951 848 701 444 47 36 50 92 37 25 55 14 5 0 4 3 0 0 0 0 0 0 0 0 0 0 1 0 0 0 0 0 0 0
386 375 467 526 565 577 645 732 740 802 946 1025 1058 1179 1358 1654 2003 2242 2332 2325 2311 2307 2321 2336 2318 2292 2255 2184 2133 2168 2283 2343 2371 2316 2263 2193 2142 2115 2039 1938 1761 1619 1572 1545 1456 1388 1369 1316 1295 1217 1068 964 918 872 556 31 24 20 62 82 20 50 50 2 3 0 0 0 0 1 0 0 0 0 0 0 6 0 1 0 0 0 1 0 0
106 378 402 476 581 722 768 844 868 848 998 1079 1116 1235 1382 1647 1994 2324 2434 2461 2485 2469 2460 2437 2408 2402 2393 2368 2318 2267 2305 2357 2387 2405 2358 2258 2137 2113 2003 1837 1722 1623 1637 1616 1597 1501 1430 1380 1361 1286 1140 1028 898 777 434 42 38 10 17 78 40 33 60 45 16 5 0 0 0 11 7 2 15 25 1 0 0 13 16 13 26 13 3 6 0
91 154 268 384 606 777 876 952 1015 1022 1115 1176 1198 1302 1401 1612 1935 2313 2504 2586 2617 2629 2602 2566 2514 2480 2488 2513 2487 2429 2385 2397 2396 2422 2441 2367 2227 2142 2061 1859 1803 1752 1673 1631 1619 1625 1553 1499 1446 1370 1246 948 751 624 456 224 218 78 9 39 53 36 32 59 75 42 7 0 0 4 3 0 28 7 0 0 0 0 22 30 28 35 31 17 12
156 167 213 340 629 781 923 1027 1095 1139 1206 1265 1294 1353 1430 1578 1859 2230 2494 2643 2730 2761 2731 2685 2629 2577 2562 2586 2609 2569 2502 2460 2425 2411 2434 2444 2360 2237 2182 2060 1893 1850 1808 1745 1650 1619 1618 1581 1509 1443 1351 1174 966 798 658 536 505 194 34 35 38 26 26 20 77 102 43 7 3 1 1 0 24 29 4 5 9 0 4 17 11 38 219 172 10
230 185 191 311 610 795 986 1080 1144 1224 1290 1366 1396 1422 1465 1552 1769 2134 2381 2615 2781 2856 2847 2783 2723 2670 2620 2630 2661 2654 2592 2534 2476 2410 2378 2415 2423 2382 2292 2225 2101 1977 1942 1900 1820 1770 1693 1596 1562 1495 1407 1286 1117 941 810 683 613 326 117 73 76 50 28 19 22 57 207 68 166 141 13 14 13 22 0 5 10 19 10 18 16 86 235 233 220
434 238 204 472 513 765 985 1114 1176 1247 1371 1445 1478 1500 1522 1560 1699 1998 2303 2558 2753 2894 2934 2866 2812 2752 2717 2687 2694 2698 2664 2611 2541 2439 2365 2342 2377 2392 2395 2356 2257 2154 2080 2024 1968 1901 1816 1668 1541 1512 1443 1313 1180 1028 920 802 686 515 177 154 125 109 203 272 322 301 340 128 39 26 24 40 36 32 12 5 8 159 68 21 149 194 227 273 277
504 418 203 463 453 629 878 1130 1205 1236 1399 1527 1528 1529 1556 1597 1666 1842 2187 2525 2722 2886 2982 2962 2883 2830 2787 2745 2715 2714 2710 2679 2594 2495 2387 2291 2286 2322 2352 2391 2363 2271 2162 2119 2071 2005 1898 1803 1705 1581 1415 1282 1175 1066 975 852 687 492 181 216 252 306 396 424 80 208 295 86 64 48 48 50 58 50 39 178 163 163 116 37 54 246 248 303 315
457 455 238 342 513 719 896 1069 1207 1297 1442 1538 1586 1590 1591 1631 1705 1803 2045 2427 2681 2854 3000 3022 2971 2908 2847 2792 2751 2725 2715 2695 2635 2557 2453 2309 2250 2268 2304 2348 2367 2347 2273 2175 2135 2082 2010 1914 1834 1723 1619 1466 1332 1197 1056 907 732 540 298 349 409 497 632 646 291 246 193 173 78 60 61 56 65 56 305 313 236 208 252 312 348 385 399 297 305
336 390 463 490 546 749 942 1124 1247 1334 1478 1614 1665 1681 1691 1708 1747 1828 1946 2256 2580 2804 2973 3056 3047 2984 2909 2845 2806 2759 2728 2702 2660 2598 2516 2402 2283 2263 2284 2313 2341 2338 2314 2260 2166 2101 2048 2007 1929 1848 1752 1651 1530 1400 1269 1104 918 750 599 585 704 867 978 994 528 414 402 272 268 152 167 74 175 404 350 343 278 323 277 359 449 492 500 427 342
302 354 426 500 609 749 873 1077 1366 1490 1540 1699 1806 1821 1781 1750 1760 1830 1939 2112 2407 2715 2909 3049 3098 3065 2985 2909 2854 2804 2769 2731 2702 2643 2588 2497 2387 2317 2311 2329 2346 2366 2351 2319 2281 2216 2145 2084 2038 1965 1891 1818 1723 1604 1473 1331 1192 1047 945 1184 1342 1334 1340 982 708 452 514 353 337 174 163 536 640 1098 971 616 452 608 645 422 462 468 455 401 364
333 381 430 487 600 791 914 1045 1338 1646 1735 1804 1881 1921 1926 1896 1856 1859 1933 2045 2244 2563 2826 3003 3104 3119 3080 3000 2917 2854 2801 2783 2743 2716 2674 2606 2535 2448 2378 2362 2391 2416 2429 2408 2371 2339 2303 2242 2182 2116 2059 2005 1938 1821 1722 1608 1497 1457 1562 1484 1418 1428 1492 1390 1036 606 672 422 307 470 456 579 906 1358 1286 1250 972 860 983 864 484 455 337 258 317
388 455 537 602 664 835 1045 1196 1381 1705 1891 1937 2011 2024 2022 2031 1997 1953 1948 1993 2146 2397 2677 2893 3043 3129 3157 3112 3016 2920 2846 2821 2795 2770 2739 2704 2637 2570 2505 2444 2444 2492 2535 2535 2490 2448 2428 2400 2366 2320 2257 2194 2116 2027 1944 1843 1785 2065 2232 2127 1823 1631 1543 1463 1152 763 776 681 371 374 290 227 564 658 787 1251 1674 1443 1008 987 935 726 515 408 389
580 596 628 728 845 996 1146 1314 1452 1695 1964 2124 2178 2154 2127 2116 2087 2065 1996 1962 1999 2295 2530 2772 2965 3113 3212 3188 3126 3025 2937 2871 2839 2815 2790 2764 2724 2640 2595 2558 2519 2529 2615 2639 2644 2593 2567 2526 2499 2463 2438 2391 2342 2282 2207 2191 2366 2518 2539 2413 2240 1952 1687 1491 1195 1078 939 717 400 265 304 212 332 1330 1218 614 722 875 801 749 808 878 874 801 708
704 700 714 852 999 1112 1266 1334 1446 1609 1890 2163 2315 2354 2329 2248 2183 2137 2096 2126 2209 2210 2456 2689 2896 3078 3215 3237 3192 3106 3029 2962 2899 2856 2850 2829 2778 2719 2645 2602 2593 2573 2609 2712 2748 2732 2701 2677 2655 2608 2588 2547 2524 2499 2615 2684 2746 2800 2752 2586 2336 2106 1883 1732 1401 1123 1005 718 495 472 268 216 151 732 775 574 566 544 547 309 326 575 773 861 804
906 776 818 849 987 1148 1333 1421 1431 1488 1692 2030 2364 2474 2510 2450 2367 2284 2261 2293 2310 2320 2425 2650 2847 3065 3193 3246 3229 3179 3119 3050 2978 2933 2913 2902 2859 2792 2720 2665 2622 2608 2658 2792 2853 2876 2868 2837 2821 2794 2769 2746 2801 2966 3041 3020 3006 3016 2862 2639 2391 2112 1861 1684 1483 1180 985 788 534 357 272 277 153 438 494 540 570 578 539 469 534 615 692 760 849
1018 980 898 889 979 1097 1200 1353 1473 1629 1756 1895 2284 2591 2679 2640 2559 2496 2438 2407 2404 2390 2415 2621 2815 3015 3158 3216 3229 3212 3176 3105 3042 2992 2975 2991 2971 2916 2858 2802 2719 2680 2774 2880 2946 2972 2997 2992 3000 2984 2982 3083 3264 3349 3318 3270 3221 3137 2896 2642 2354 2088 1869 1682 1468 1242 1078 913 587 462 401 246 179 399 372 448 665 512 448 539 569 656 730 650 486
1470 1674 1688 1362 1110 1177 1312 1328 1463 1714 1905 1995 2114 2455 2763 2821 2741 2675 2624 2502 2451 2431 2462 2582 2763 2936 3102 3193 3216 3203 3184 3151 3085 3025 3004 3047 3070 3066 3024 2978 2956 2941 2960 3000 3088 3136 3161 3189 3195 3248 3359 3485 3562 3555 3479 3384 3303 3102 2795 2571 2337 2119 1944 1702 1407 1258 1108 910 774 636 487 346 194 341 470 529 619 1421 860 928 944 957 842 754 895
216 1335 1763 1984 1963 1856 2036 2299 2057 1990 2139 2216 2202 2303 2530 2776 2866 2839 2734 2590 2447 2471 2492 2510 2691 2836 3024 3140 3197 3200 3189 3184 3130 3064 3031 3062 3131 3172 3164 3148 3192 3219 3210 3203 3225 3290 3383 3430 3490 3543 3598 3657 3680 3570 3462 3321 3196 3070 2848 2574 2382 2190 2036 1798 1486 1264 1096 951 731 560 407 270 251 314 511 623 434 964 909 930 886 903 1085 1268 1447
564 35 818 1681 2038 2109 2123 2459 2842 2913 2791 2725 2705 2645 2719 2770 2789 2825 2811 2726 2607 2559 2553 2569 2609 2731 2911 3127 3255 3275 3240 3219 3192 3130 3084 3128 3244 3339 3353 3374 3386 3402 3439 3423 3413 3449 3493 3527 3602 3681 3775 3765 3662 3568 3482 3331 3192 3049 2851 2586 2300 2044 1934 1723 1525 1323 1082 900 639 756 1011 269 332 555 282 232 288 400 656 610 672 811 1031 1159 1256
3018 2503 822 766 1688 2232 2197 2248 2634 3042 3246 3306 3125 2994 2968 2975 2961 2931 2883 2858 2831 2738 2650 2606 2613 2653 2878 3149 3346 3402 3384 3350 3319 3265 3245 3314 3437 3519 3564 3587 3588 3598 3637 3657 3677 3695 3738 3788 3830 3832 3737 3644 3575 3490 3383 3225 3120 2926 2663 2445 2208 1966 1824 1720 1650 1392 1100 803 515 186 518 644 478 198 74 78 128 178 363 547 696 820 952 1211 1232
2394 2399 2820 1708 930 2042 2313 2399 2373 2717 3189 3510 3494 3234 3120 3127 3134 3071 3017 3014 2993 2927 2807 2738 2711 2705 2819 3206 3455 3548 3568 3558 3524 3498 3498 3555 3625 3679 3748 3789 3792 3793 3779 3815 3847 3872 3861 3836 3803 3718 3566 3450 3419 3324 3134 2898 2739 2589 2389 2180 2044 1862 1742 1557 1352 1141 853 668 588 250 38 240 347 275 182 86 77 140 328 606 757 810 985 1129 1173
2325 2290 2302 2776 3164 2570 1490 2192 2528 2616 2912 3308 3536 3463 3280 3214 3196 3178 3189 3204 3128 3005 2920 2837 2775 2758 2921 3328 3602 3723 3756 3795 3784 3735 3707 3730 3783 3820 3881 3946 3969 3969 3959 3958 3922 3884 3846 3802 3731 3627 3500 3351 3169 2976 2782 2621 2522 2253 1995 1893 1798 1635 1530 1430 1233 946 801 692 612 498 363 322 195 261 384 427 459 550 674 698 652 624 789 601 673
2358 2411 2624 2454 2752 3221 3152 2937 3118 2674 2832 3196 3424 3568 3528 3328 3181 3196 3276 3272 3201 3105 2983 2897 2841 2803 3118 3553 3830 3913 3950 3996 3986 3927 3872 3896 3950 4014 4065 4074 4084 4086 4107 4095 4055 4007 3919 3839 3726 3532 3296 3103 2965 2738 2537 2354 2085 1881 1709 1568 1520 1481 1380 1165 999 856 694 601 168 407 300 13 0 0 115 546 744 836 920 725 713 757 825 643 634
2664 2581 2594 2612 2654 2854 3126 3505 3332 3371 3460 3516 3471 3551 3562 3563 3433 3318 3243 3194 3203 3159 3068 2970 2929 3030 3550 3846 4038 4087 4128 4122 4099 4050 3995 4002 4098 4181 4232 4235 4222 4254 4249 4246 4161 4049 3883 3750 3558 3292 2992 2518 2349 2269 2080 1926 1772 1600 1461 1327 1278 1272 1058 880 642 548 509 479 118 122 0 0 0 0 362 868 1074 1013 608 344 501 568 607 488 265
2564 2765 2782 2722 2626 2626 2814 3132 3430 3528 3565 3757 3725 3733 3732 3706 3542 3407 3358 3344 3290 3353 3388 3381 3406 3658 3949 4184 4210 4202 4205 4194 4187 4162 4139 4115 4183 4259 4312 4286 4328 4312 4292 4241 4033 3838 3627 3388 3151 2669 2154 2078 1957 1688 1541 1428 1248 1059 1052 1028 956 751 607 546 473 421 428 411 0 0 0 318 761 1046 1187 1173 1154 922 536 586 543 388 313 60 0
2977 2772 2774 2854 2790 2584 2576 2754 2930 3294 3674 3740 3871 3839 3888 3801 3783 3690 3627 3610 3624 3744 3736 3778 3856 3993 4113 4234 4298 4314 4290 4271 4278 4255 4210 4189 4245 4294 4330 4308 4269 4199 4067 3949 3766 3425 3204 2863 2384 2140 1990 1801 1544 1249 1114 950 905 982 965 808 613 355 394 408 383 261 0 0 0 192 759 975 1070 1120 1130 1068 1016 956 735 422 0 0 0 0 0
2009 2121 2483 2756 2819 2700 2598 2207 2439 2866 3122 3484 3621 3756 3740 3636 3871 4237 4053 4104 4111 4033 4092 4093 4061 4063 4120 4170 4225 4250 4285 4320 4331 4319 4296 4292 4287 4291 4292 4227 4037 3910 3751 3557 3395 3139 2653 2324 2162 1934 1748 1490 1231 940 656 664 645 544 422 297 0 0 194 0 0 0 0 156 717 856 902 923 951 926 849 681 664 619 450 206 0 0 0 0 0
2042 2070 1978 2216 2544 2511 2516 2607 2686 2678 2973 3421 3477 3384 3222 3217 3443 3894 4187 4068 3821 3936 3753 3907 4084 4027 4090 4134 4110 4190 4244 4321 4323 4324 4371 4360 4322 4208 4114 4006 3807 3630 3348 3023 2737 2478 2289 2021 1694 1514 1286 1031 749 472 418 452 408 436 456 190 0 0 0 0 0 0 0 22 526 674 680 655 658 615 579 493 418 264 192 0 0 0 0 0 0
2038 2160 2190 2102 2258 2289 2232 2170 2156 2458 3096 3479 3910 4158 3994 3884 3964 4105 4222 4074 3918 3689 3804 3714 3881 4062 3998 3987 4074 4025 4125 4215 4323 4404 4352 4058 3991 3940 3727 3628 3282 2770 2653 2495 2194 1997 1828 1648 1404 1208 979 699 464 418 488 503 539 482 321 0 0 0 0 0 0 0 0 0 197 379 386 408 423 451 450 410 230 7 0 0 0 0 0 0 0
1950 1950 2083 2190 2170 2102 2100 2045 2226 2441 2789 3105 3187 3734 4381 4480 4426 4408 4059 4007 3994 3833 3735 3722 3737 3530 3587 3641 3971 3877 4030 4221 4251 4238 4070 3802 3718 3454 2766 2434 2234 2032 1864 1731 1669 1642 1511 1263 1048 876 622 419 475 684 631 556 481 421 527 542 277 0 0 0 0 0 0 0 0 0 174 289 392 421 374 29 0 0 0 0 0 0 0 0 0
1646 1721 1802 1943 2084 2098 2019 1958 2004 1978 2005 2040 2010 2046 2597 3293 3887 3845 3986 4004 3619 3564 3572 3228 2428 2414 2852 3064 3450 3691 3379 3290 3173 3358 3460 3378 2109 2130 2075 1851 1615 1384 1158 944 924 958 921 823 628 592 535 534 707 720 611 616 643 661 654 524 0 0 0 0 0 0 0 0 0 118 235 262 350 269 64 0 0 0 0 0 0 0 0 0 0
Wind_Speed
11 9 6 6 5 2 2 3 4 3 3 4 5 5 4 4 3 3 3 4 3 3 3 4 4 3 3 4 5 4 3 3 4 6 5 7 8 9 10 11 11 11 12 13 14 14 15 16 16 16 15 16 15 14 14 14 15 16 16 13 15 nan 13 nan nan nan nan nan nan nan nan 13 13 12 nan nan 12 13 13 9 7 8 9 11 11
9 6 4 3 4 1 1 2 3 3 2 5 7 7 5 5 6 5 4 5 5 5 3 3 3 4 3 3 2 2 2 3 4 6 5 6 9 10 10 10 11 12 13 15 16 17 17 16 16 16 16 15 14 12 13 14 14 15 15 13 12 nan nan nan nan nan nan nan nan nan nan nan 14 14 12 13 14 17 15 11 10 11 10 11 11
nan nan 6 3 5 3 1 2 3 5 5 6 7 8 8 7 6 6 5 6 6 6 5 4 2 2 3 2 3 1 1 2 3 4 4 6 8 9 10 11 12 12 14 16 16 17 17 17 15 15 15 14 14 12 13 15 15 16 16 nan nan 15 16 18 nan nan nan nan 20 nan nan nan nan nan nan nan nan 19 18 14 13 12 12 13 13
nan nan nan nan 4 3 2 3 5 6 6 6 8 9 8 8 9 9 8 8 7 7 7 4 4 4 3 5 4 4 2 1 2 2 4 5 7 8 9 12 13 14 15 16 15 16 16 16 14 14 15 15 16 15 nan nan nan nan nan nan nan nan nan nan 20 nan nan nan nan nan nan nan nan nan nan nan 17 20 nan nan 15 nan 16 16 15
nan nan nan 6 6 5 4 4 6 7 7 8 8 8 7 11 12 13 12 10 8 9 9 7 6 7 7 7 6 5 5 3 2 3 5 6 7 8 11 12 14 15 16 17 16 16 14 14 14 14 14 15 15 17 nan nan nan nan nan nan nan nan nan nan 20 21 nan nan nan nan nan nan nan nan nan nan 16 nan nan nan 16 17 18 18 18
nan nan nan 11 10 8 6 5 6 6 6 6 7 7 8 9 11 12 12 11 10 10 11 9 8 8 8 8 7 5 4 4 7 8 7 8 10 10 11 13 14 14 15 16 16 14 13 13 13 14 15 15 17 18 nan nan nan nan nan nan nan nan nan nan nan 21 23 24 nan nan nan nan nan nan nan nan nan nan nan nan nan 17 18 20 18
12 nan nan 10 11 12 11 9 9 9 8 9 8 7 8 8 9 11 11 11 11 10 11 10 9 8 9 9 8 8 7 5 4 5 7 7 9 12 12 13 14 16 15 15 15 13 13 13 14 15 16 16 17 18 nan nan nan nan nan nan nan 21 nan nan nan nan nan 23 23 nan 25 26 nan nan nan nan nan nan nan nan nan nan 19 21 19
13 10 10 10 11 14 14 13 11 12 12 11 11 10 10 10 10 11 10 12 12 11 11 10 11 9 9 9 8 7 7 7 7 7 7 8 10 12 13 14 15 15 15 14 14 13 13 14 15 15 17 17 18 nan nan nan nan nan nan nan nan nan nan nan nan nan nan nan 21 nan 25 27 nan nan nan nan nan nan nan nan nan nan nan nan nan
14 11 11 10 10 11 13 13 13 13 12 12 11 12 13 12 13 12 12 12 12 14 11 10 10 10 10 9 8 6 6 5 5 6 8 9 11 11 14 15 15 14 14 14 13 13 13 15 15 16 18 19 18 nan nan nan nan nan nan nan nan nan nan nan nan nan nan nan nan nan nan nan nan nan nan nan nan nan nan nan nan nan nan nan nan
14 15 14 13 12 12 13 15 14 13 13 14 15 14 14 14 15 15 15 14 14 15 13 11 9 9 9 9 9 8 6 5 6 7 8 11 12 13 14 14 14 14 13 13 13 13 14 15 16 18 19 19 19 nan nan nan nan nan nan nan nan nan 23 nan nan nan nan nan nan nan nan nan nan nan nan nan nan nan nan nan nan nan nan nan nan
15 13 12 14 14 12 11 12 13 12 10 13 14 14 15 16 17 18 17 16 17 17 16 14 10 9 9 10 10 9 8 8 8 8 9 11 13 13 14 14 14 14 13 12 13 13 14 16 18 19 18 19 20 nan nan nan nan nan nan nan nan nan nan nan 26 26 nan 28 nan nan nan nan nan nan nan nan nan nan nan nan nan nan nan nan nan
nan 15 12 11 11 10 11 11 12 12 11 13 13 15 16 16 17 18 17 17 17 18 18 16 12 10 9 10 10 9 9 8 10 11 11 13 14 14 14 15 14 14 14 13 12 13 15 16 18 19 18 19 21 nan nan nan nan nan nan nan nan nan nan nan 28 28 nan nan nan nan nan nan nan nan nan nan nan nan nan nan nan nan nan nan nan
nan 16 14 11 11 12 12 11 13 13 13 15 16 17 17 17 18 19 18 18 18 18 18 18 15 12 11 11 10 9 9 9 10 11 11 13 13 13 14 15 15 15 14 14 14 15 15 17 18 19 19 20 22 nan nan nan nan nan nan nan nan nan nan nan nan nan nan nan nan nan nan nan nan nan nan nan nan nan nan nan nan nan nan nan nan
nan nan 15 14 13 14 14 15 15 14 15 17 18 18 17 17 19 19 19 19 19 18 18 18 16 15 13 13 12 11 10 9 9 10 12 12 13 14 15 16 17 17 16 15 16 17 16 17 18 19 20 21 23 24 nan nan nan nan nan nan nan nan nan nan nan nan nan nan nan nan nan nan nan nan nan nan nan nan nan nan nan nan nan nan nan
nan nan nan 15 15 16 15 15 15 15 17 18 18 18 17 18 20 21 21 20 20 19 18 18 17 16 15 14 14 13 11 10 10 11 12 13 13 14 14 15 17 16 16 14 16 18 18 17 17 19 20 22 23 24 nan nan nan nan nan nan nan nan nan nan nan nan nan nan nan nan nan nan nan nan nan nan nan nan nan nan nan nan nan nan nan
nan nan nan 15 16 16 15 15 15 15 18 18 18 18 18 19 21 22 23 22 21 20 17 17 18 18 17 16 15 15 13 12 11 12 12 12 14 14 15 15 16 17 15 15 15 18 19 19 19 19 21 22 23 23 nan nan nan nan nan nan nan 31 nan nan nan nan nan nan nan nan nan nan nan nan nan nan nan nan nan nan nan nan nan nan nan
19 17 15 15 14 15 17 16 15 16 17 17 18 20 21 21 20 21 22 21 20 19 18 17 18 18 17 17 17 17 16 14 14 14 14 13 13 14 14 15 16 16 15 15 16 16 18 20 20 20 21 21 22 22 nan nan nan nan nan nan nan 33 nan nan nan nan nan nan nan nan nan nan nan nan nan nan nan nan nan nan nan nan nan nan nan
19 17 16 14 13 16 16 16 16 17 18 17 18 20 20 20 22 22 21 20 18 19 19 19 18 18 18 17 17 17 17 17 17 17 16 15 14 14 15 15 15 15 15 15 16 17 18 20 20 20 20 20 22 23 25 nan nan nan nan nan nan nan nan nan nan nan nan nan nan nan nan nan nan nan nan nan nan nan nan nan nan nan nan nan nan
15 16 14 12 14 16 16 15 15 16 18 18 19 21 20 20 21 23 23 22 22 20 19 19 19 19 19 18 18 18 18 18 19 19 18 16 15 15 15 15 15 14 14 15 16 17 18 19 20 20 20 21 22 25 27 nan nan nan nan nan nan nan nan nan nan nan nan nan nan nan nan nan nan nan nan nan nan nan nan nan nan nan nan nan nan
15 16 15 14 15 17 16 15 15 16 16 16 19 19 22 23 23 22 21 21 21 21 20 19 19 19 19 19 18 18 18 19 19 19 17 16 15 15 15 15 14 12 12 15 16 17 19 20 20 21 21 22 25 26 29 nan nan nan nan nan nan nan nan nan nan nan nan nan nan nan nan nan nan nan nan nan nan nan nan nan nan nan nan nan nan
16 15 15 13 14 15 15 13 13 15 16 16 16 18 20 22 23 24 24 22 21 20 20 18 19 17 18 17 16 16 15 16 16 16 15 15 15 14 13 13 13 10 11 13 15 17 18 20 21 21 23 25 27 28 28 nan nan nan nan nan nan nan nan nan nan nan nan nan nan nan nan nan nan nan nan nan nan nan nan nan nan nan nan nan nan
16 14 14 13 15 16 16 15 16 18 16 15 14 16 18 21 23 24 23 21 21 20 19 19 18 17 16 15 14 14 13 12 12 12 11 12 12 12 11 11 10 9 11 12 14 15 17 19 20 21 24 26 28 29 29 nan nan nan nan nan nan nan nan nan nan nan nan nan nan nan nan nan nan nan nan nan nan nan nan nan nan nan nan nan nan
nan 16 17 18 20 19 19 21 21 18 14 14 15 17 18 19 21 22 22 20 19 19 20 20 19 17 15 15 14 12 11 9 9 9 8 9 9 9 8 7 7 9 10 12 14 15 17 18 19 21 24 25 27 28 30 32 34 nan nan nan nan nan nan nan nan nan nan nan nan nan nan nan nan nan nan nan nan nan nan nan nan nan nan nan nan
20 19 19 19 19 21 23 23 23 19 15 15 16 17 16 16 18 19 18 18 18 18 19 20 19 17 16 15 12 10 8 7 6 6 6 6 6 6 5 4 6 9 11 11 13 15 17 18 20 22 23 24 26 28 31 33 36 37 nan nan nan nan nan nan nan 31 nan nan nan nan nan nan nan nan nan nan nan nan nan nan nan nan 33 33 nan
22 23 22 20 23 28 26 23 22 19 15 15 19 20 19 17 16 16 15 17 16 18 19 19 19 18 17 14 12 10 8 6 5 5 3 3 3 4 5 3 6 8 10 12 12 14 16 19 20 22 22 23 26 29 31 33 34 35 37 nan nan nan nan nan nan nan 28 nan 28 28 nan nan nan nan nan nan nan nan nan nan nan nan 33 32 32
22 23 25 25 24 26 28 26 22 18 15 15 19 21 20 18 15 15 16 16 16 18 19 19 19 18 16 15 13 10 8 7 6 6 4 3 3 4 4 5 6 8 10 11 12 14 16 19 19 20 21 23 25 28 31 34 35 35 36 37 38 37 36 34 32 30 28 26 nan nan nan nan nan nan nan nan nan 35 nan nan 35 35 35 34 34
23 26 26 25 23 23 26 27 25 20 15 15 18 21 21 20 19 18 18 17 17 19 20 20 19 18 16 15 14 11 9 9 8 8 7 6 5 4 4 5 6 7 9 10 12 14 15 16 17 18 21 24 26 27 29 32 34 35 36 38 38 39 38 36 nan 32 29 nan nan nan nan nan nan nan nan 35 36 37 37 nan nan 38 37 36 34
23 26 28 29 24 21 24 25 25 21 18 16 17 20 21 22 21 20 20 20 19 20 22 21 20 18 16 15 14 13 12 12 11 11 10 8 7 6 5 6 7 6 8 10 12 13 13 14 16 18 21 23 26 27 29 32 34 36 37 38 40 40 41 38 36 34 31 29 nan nan nan nan nan nan 35 36 38 39 38 37 39 39 38 36 33
25 27 28 28 25 22 23 25 24 24 22 19 19 18 20 23 24 23 23 22 23 23 22 22 21 19 17 16 16 15 15 15 14 14 12 9 8 7 6 6 5 6 8 9 10 11 12 14 16 19 22 24 27 28 30 33 36 37 38 40 41 42 42 40 37 35 32 31 29 29 30 nan 34 36 39 39 39 40 41 40 39 41 39 37 33
25 26 25 25 24 22 25 27 27 28 26 23 20 18 19 22 24 26 26 25 27 25 24 23 22 20 18 18 18 17 17 17 16 14 12 11 9 8 7 5 5 7 8 9 9 11 13 16 19 21 23 25 27 29 33 41 41 39 41 41 41 41 42 41 38 35 33 32 31 31 32 36 38 39 39 40 40 41 42 43 43 44 41 37 34
16 18 21 22 23 24 27 29 28 28 27 24 21 19 19 20 22 26 26 26 27 26 24 23 23 21 21 21 21 19 19 17 16 15 14 12 10 9 7 6 7 8 8 9 10 13 15 18 21 23 26 27 29 31 40 43 45 46 44 43 43 42 41 41 39 37 34 33 32 33 34 36 38 37 37 40 40 40 40 42 44 44 42 38 36
17 19 24 25 25 27 29 29 29 28 27 26 25 25 24 22 22 22 23 26 26 26 25 24 24 25 24 24 23 22 19 17 17 15 14 13 12 10 8 7 8 9 9 11 12 14 17 20 22 25 28 30 31 36 45 48 49 49 48 45 44 43 42 42 41 39 36 34 34 35 35 35 36 36 36 37 38 39 39 39 40 39 37 37 38
32 29 27 26 27 28 28 29 30 29 27 26 30 31 27 25 23 21 24 27 27 26 26 25 26 28 27 26 26 25 20 17 16 16 17 17 14 11 9 8 8 10 13 12 13 16 18 21 24 27 29 32 33 41 48 51 52 52 52 49 45 46 45 44 43 41 39 38 37 36 35 34 33 37 37 37 39 38 38 38 36 33 31 34 37
40 36 30 28 28 28 27 27 29 28 28 29 34 35 32 29 26 26 28 28 28 27 26 26 28 28 29 28 28 27 22 17 17 19 20 18 15 11 10 11 12 13 13 13 14 17 19 22 25 28 30 32 34 42 50 52 52 53 54 53 47 48 47 45 44 43 40 39 39 38 36 34 33 35 37 38 38 37 37 38 38 37 37 37 38
42 38 33 30 27 23 21 22 25 27 31 35 36 36 36 36 35 32 30 30 29 28 27 28 29 28 29 30 30 29 25 20 19 21 22 19 16 14 12 13 14 13 13 14 15 18 20 23 26 29 30 33 35 46 50 51 52 55 57 55 49 49 47 45 44 43 42 41 40 40 38 37 36 37 38 40 40 38 37 37 38 38 38 36 36
38 37 34 31 27 26 24 24 27 30 34 38 38 38 40 41 41 37 34 33 33 32 29 30 30 30 30 30 31 30 28 24 22 23 23 20 18 15 14 15 15 14 14 14 15 18 21 24 28 31 32 35 38 49 51 52 54 56 59 55 50 49 47 45 44 43 42 42 42 41 40 39 39 39 41 44 42 40 38 38 40 40 35 33 35
42 42 39 36 34 31 29 30 33 35 37 38 38 41 43 45 44 41 38 36 37 36 32 31 31 30 30 31 31 32 31 28 24 24 23 21 19 17 17 19 17 16 16 16 18 20 23 27 30 33 36 38 40 49 54 55 56 60 60 54 49 47 46 46 45 44 44 43 43 42 42 41 41 42 44 45 43 42 40 42 43 40 37 37 38
45 44 40 40 40 39 39 41 41 42 41 40 40 43 46 46 43 41 40 37 37 35 32 32 32 31 31 32 33 33 34 31 27 24 22 21 20 20 19 20 18 18 17 18 20 23 25 28 32 35 39 41 42 49 56 56 57 59 58 50 43 42 43 45 45 45 45 45 45 49 46 44 44 44 45 46 44 43 43 42 41 41 39 38 40
50 nan 41 40 41 41 40 42 46 45 44 47 46 44 45 44 41 40 39 36 33 32 32 32 32 33 33 33 34 34 34 33 28 24 23 22 22 22 23 23 20 20 19 21 24 26 27 29 32 36 41 43 43 47 52 53 55 55 52 45 42 41 44 45 46 45 44 45 44 46 49 46 45 44 45 44 44 44 41 42 42 41 39 40 43
60 59 51 43 44 47 47 48 48 44 44 49 49 46 43 41 40 41 40 37 33 30 31 32 34 37 37 34 34 35 35 34 30 27 24 24 26 27 26 25 25 24 25 25 27 29 31 32 34 37 38 40 43 43 45 51 56 56 54 48 46 46 47 48 48 47 46 43 44 43 44 47 46 43 nan nan 43 46 43 42 43 43 43 41 45
66 63 61 57 52 50 47 46 46 44 45 50 51 50 46 42 42 42 40 37 35 33 33 35 39 41 40 37 35 35 36 34 33 31 29 30 30 28 29 30 31 30 29 29 31 32 33 35 36 36 38 40 42 45 45 52 54 56 54 52 47 48 50 52 51 48 46 45 43 42 nan 42 43 40 39 nan nan 45 45 44 43 40 37 39 46
63 67 69 65 64 62 58 54 51 54 56 53 51 50 47 45 47 45 40 38 38 38 39 42 43 42 42 41 38 37 37 38 38 38 36 34 32 31 32 34 35 34 34 35 35 35 36 38 39 39 40 42 44 48 49 50 54 56 57 56 51 50 53 54 51 46 43 42 42 41 40 41 41 39 38 38 41 44 48 44 37 36 37 43 46
58 62 64 64 64 64 65 64 62 60 61 61 60 55 50 47 46 45 43 42 45 47 45 45 46 46 44 43 41 40 40 42 43 43 41 38 37 36 37 39 39 39 39 40 39 39 40 41 42 42 42 44 46 48 53 53 53 56 58 56 56 55 58 53 48 43 41 40 41 40 38 nan nan nan 38 38 41 51 53 41 40 44 47 50 54
52 52 52 53 53 53 56 61 66 70 68 68 65 61 58 56 51 48 46 48 52 53 52 50 49 48 47 45 43 42 42 45 47 48 46 44 42 41 41 42 42 42 43 43 41 41 43 43 44 45 45 46 47 49 51 55 54 55 56 58 58 61 57 44 40 39 39 39 39 38 nan nan nan nan 41 41 48 48 44 43 47 50 53 53 51
53 53 51 49 50 48 47 51 57 63 68 70 71 70 67 60 57 61 60 56 54 56 58 54 51 51 52 50 47 46 46 47 49 52 51 49 47 46 47 45 46 45 45 44 42 43 44 44 45 47 47 48 49 51 52 53 56 57 59 60 61 60 50 41 38 37 38 38 nan nan nan 45 44 44 45 47 48 46 45 47 50 52 52 nan nan
56 57 56 54 53 54 53 51 53 59 61 65 69 71 68 67 71 70 68 64 63 63 62 59 56 57 59 57 53 52 52 51 51 53 55 52 50 49 50 48 48 47 46 45 45 45 45 46 47 48 49 50 50 52 54 53 52 54 56 60 60 55 46 39 38 38 nan nan nan 46 48 48 47 47 46 42 43 44 46 48 nan nan nan nan nan
61 58 58 59 59 60 60 57 55 53 53 56 59 66 73 79 83 82 81 82 79 72 68 66 64 63 65 65 61 57 58 57 55 57 59 57 54 53 53 52 50 48 47 46 47 47 47 47 48 49 51 52 53 54 54 51 51 51 50 50 nan nan 40 nan nan nan nan 42 44 44 44 45 46 46 43 42 43 46 46 45 nan nan nan nan nan
58 60 60 62 64 65 67 65 61 57 55 54 54 56 60 65 70 77 81 86 90 84 71 69 70 67 68 71 68 64 62 60 57 60 63 61 56 54 53 52 50 49 48 47 47 47 47 48 49 51 52 54 55 55 52 51 52 51 47 43 nan nan nan nan nan nan nan nan 44 46 46 45 45 44 43 44 44 44 43 nan nan nan nan nan nan
54 56 60 64 63 65 67 68 65 60 59 60 59 58 59 62 67 69 73 80 87 91 82 72 71 71 75 79 74 66 63 64 64 67 70 65 56 53 55 55 53 51 49 49 47 48 48 48 51 54 55 56 56 51 47 51 54 51 47 nan nan nan nan nan nan nan nan nan 44 44 44 44 45 46 44 44 43 nan nan nan nan nan nan nan nan
52 51 52 57 60 60 62 64 62 60 62 64 65 63 62 64 67 72 74 76 82 86 82 74 71 73 80 79 76 70 71 71 70 70 70 68 71 67 60 56 52 54 53 52 52 49 49 51 54 54 55 57 53 48 52 58 55 50 48 47 44 nan nan nan nan nan nan nan nan nan 44 45 46 45 44 nan nan nan nan nan nan nan nan nan nan
53 53 53 51 52 55 56 56 57 59 61 61 60 59 62 65 67 70 76 79 81 83 82 77 71 64 68 72 72 74 72 67 64 63 65 62 59 64 70 67 60 56 56 55 53 57 57 56 57 57 53 49 48 52 56 57 54 50 50 48 nan nan nan nan nan nan nan nan nan 45 44 43 44 44 nan nan nan nan nan nan nan nan nan nan nan
Wind_Direction
3 9 33 58 59 111 170 200 210 248 291 328 327 336 341 348 346 3 350 352 351 12 42 41 44 66 78 49 53 64 59 65 56 56 43 44 37 34 25 22 15 2 354 345 343 337 334 332 332 335 333 333 338 347 344 348 348 346 348 344 339 nan 337 nan nan nan nan nan nan nan nan 313 316 305 nan nan 293 293 290 294 279 280 288 301 304
345 355 18 36 57 41 247 219 232 281 301 321 334 335 332 328 343 333 320 336 346 355 359 18 32 26 18 25 25 46 38 38 45 53 36 29 23 24 16 10 3 353 346 343 340 334 330 331 335 339 339 342 347 349 349 349 349 346 344 343 340 nan nan nan nan nan nan nan nan nan nan nan 309 303 296 294 304 294 293 297 293 291 295 295 291
nan nan 355 359 17 358 301 294 309 339 323 326 325 317 328 323 324 317 315 322 331 338 336 357 0 345 339 285 330 260 93 36 23 26 13 4 17 12 1 358 352 346 343 341 337 336 334 335 343 344 347 346 349 354 351 353 348 345 343 nan nan 333 337 335 nan nan nan nan 324 nan nan nan nan nan nan nan nan 295 295 300 294 290 290 285 287
nan nan nan nan 350 344 272 295 316 319 325 324 322 332 319 315 313 317 318 319 318 328 332 328 320 297 294 286 282 300 299 308 358 6 350 346 1 358 354 349 346 344 343 338 337 338 338 342 346 347 350 347 350 353 nan nan nan nan nan nan nan nan nan nan 335 nan nan nan nan nan nan nan nan nan nan nan 291 300 nan nan 285 nan 287 285 288
nan nan nan 333 334 347 334 317 307 322 331 334 333 325 303 328 323 322 318 323 315 318 326 311 291 270 268 256 256 246 226 289 307 16 355 351 345 348 354 346 343 343 341 341 342 343 342 344 346 348 347 349 348 354 nan nan nan nan nan nan nan nan nan nan 333 329 nan nan nan nan nan nan nan nan nan nan 292 nan nan nan 286 288 291 292 291
nan nan nan 353 346 339 329 310 313 316 323 329 331 334 319 316 315 317 310 312 318 323 322 312 310 305 297 298 311 324 341 344 8 5 354 353 354 344 342 343 339 339 340 342 345 342 345 345 344 344 347 351 349 354 nan nan nan nan nan nan nan nan nan nan nan 327 324 322 nan nan nan nan nan nan nan nan nan nan nan nan nan 289 288 287 289
338 nan nan 355 346 340 340 339 333 324 328 322 322 324 322 311 310 313 308 308 313 320 325 313 312 316 326 327 329 341 353 12 355 349 354 349 331 337 338 336 336 336 340 342 342 345 345 343 343 345 347 349 349 345 nan nan nan nan nan nan nan 335 nan nan nan nan nan 322 320 nan 318 315 nan nan nan nan nan nan nan nan nan nan 287 287 292
327 349 3 1 349 343 347 354 343 341 332 325 328 324 326 320 315 317 306 309 312 317 327 322 317 319 325 326 326 339 356 3 353 355 336 320 332 334 329 333 333 335 337 341 341 342 342 343 342 342 343 346 344 nan nan nan nan nan nan nan nan nan nan nan nan nan nan nan 328 nan 325 315 nan nan nan nan nan nan nan nan nan nan nan nan nan
330 333 349 1 354 344 345 350 357 349 332 334 334 332 332 325 322 314 311 308 309 319 323 325 317 320 327 320 321 334 348 344 334 330 321 319 329 326 328 329 331 332 335 336 338 340 341 343 340 339 341 343 343 nan nan nan nan nan nan nan nan nan nan nan nan nan nan nan nan nan nan nan nan nan nan nan nan nan nan nan nan nan nan nan nan
328 339 344 353 353 345 346 352 353 350 342 339 338 330 326 319 321 320 317 311 308 316 319 323 322 315 317 318 329 330 326 307 308 325 321 313 325 328 325 325 329 329 332 333 332 336 337 337 337 340 343 344 341 nan nan nan nan nan nan nan nan nan 328 nan nan nan nan nan nan nan nan nan nan nan nan nan nan nan nan nan nan nan nan nan nan
317 327 335 344 344 340 335 339 348 345 332 329 327 324 319 319 322 325 323 313 313 316 316 320 317 315 315 317 327 331 330 313 308 319 310 304 316 323 323 326 326 328 324 327 330 331 333 335 338 340 343 343 342 nan nan nan nan nan nan nan nan nan nan nan 333 338 nan 341 nan nan nan nan nan nan nan nan nan nan nan nan nan nan nan nan nan
nan 312 320 330 322 322 314 326 327 326 316 319 316 313 313 314 318 325 322 316 311 313 315 317 312 313 309 313 319 320 320 310 316 320 316 313 316 322 321 319 323 321 321 319 323 328 332 334 337 339 342 342 342 nan nan nan nan nan nan nan nan nan nan nan 336 342 nan nan nan nan nan nan nan nan nan nan nan nan nan nan nan nan nan nan nan
nan 310 311 309 307 311 311 313 309 312 314 316 312 308 308 310 317 321 321 314 307 309 313 314 312 309 305 307 307 303 309 315 315 312 303 305 308 314 316 321 318 318 322 321 323 329 332 334 335 339 342 341 340 nan nan nan nan nan nan nan nan nan nan nan nan nan nan nan nan nan nan nan nan nan nan nan nan nan nan nan nan nan nan nan nan
nan nan 306 305 304 307 314 309 310 314 313 308 306 304 303 305 312 316 315 309 302 303 307 307 310 305 301 299 299 296 302 304 303 304 301 296 300 313 319 321 321 325 325 326 323 327 332 338 338 340 341 340 340 341 nan nan nan nan nan nan nan nan nan nan nan nan nan nan nan nan nan nan nan nan nan nan nan nan nan nan nan nan nan nan nan
nan nan nan 298 304 308 305 303 305 308 306 301 298 303 304 306 309 313 306 303 301 301 298 304 297 294 290 290 290 286 291 291 293 292 295 297 293 305 313 314 316 319 323 321 318 326 333 335 340 340 341 341 341 341 nan nan nan nan nan nan nan nan nan nan nan nan nan nan nan nan nan nan nan nan nan nan nan nan nan nan nan nan nan nan nan
nan nan nan 293 300 300 295 292 295 294 299 298 305 304 309 311 311 314 311 305 301 298 297 298 293 285 286 287 289 288 283 282 280 280 283 291 295 301 308 312 312 313 315 314 320 325 331 335 341 345 343 342 340 340 nan nan nan nan nan nan nan 337 nan nan nan nan nan nan nan nan nan nan nan nan nan nan nan nan nan nan nan nan nan nan nan
294 291 288 296 293 291 290 292 288 287 291 304 312 313 317 309 308 312 309 304 303 299 293 287 285 284 285 284 282 283 287 288 284 285 288 288 291 294 300 308 308 308 310 312 319 326 330 334 339 344 344 343 339 339 nan nan nan nan nan nan nan 336 nan nan nan nan nan nan nan nan nan nan nan nan nan nan nan nan nan nan nan nan nan nan nan
302 294 296 300 295 292 291 294 295 296 304 311 315 312 310 311 313 313 309 310 301 291 286 280 281 282 279 280 280 282 282 284 280 282 283 285 286 285 290 298 307 306 307 308 315 327 331 335 337 341 342 340 340 337 337 nan nan nan nan nan nan nan nan nan nan nan nan nan nan nan nan nan nan nan nan nan nan nan nan nan nan nan nan nan nan
299 300 294 287 280 284 296 302 298 299 304 310 312 309 310 313 313 314 316 312 307 294 288 280 281 272 271 276 279 278 277 277 276 277 278 284 289 287 294 299 299 302 304 307 314 326 331 334 335 336 336 338 337 338 337 nan nan nan nan nan nan nan nan nan nan nan nan nan nan nan nan nan nan nan nan nan nan nan nan nan nan nan nan nan nan
314 309 303 294 293 298 302 298 289 289 294 299 304 310 321 319 314 313 310 305 304 302 294 288 282 274 271 270 274 276 276 276 276 275 276 281 284 287 292 296 303 297 302 308 316 327 331 332 332 332 333 334 336 338 338 nan nan nan nan nan nan nan nan nan nan nan nan nan nan nan nan nan nan nan nan nan nan nan nan nan nan nan nan nan nan
325 321 316 304 293 292 295 289 282 281 283 287 298 316 321 315 317 315 314 311 309 305 299 291 281 279 279 281 278 276 277 272 273 274 275 276 278 284 292 293 285 297 299 308 319 328 329 330 331 331 333 334 337 339 339 nan nan nan nan nan nan nan nan nan nan nan nan nan nan nan nan nan nan nan nan nan nan nan nan nan nan nan nan nan nan
331 328 331 316 293 293 291 280 264 264 273 293 305 310 312 319 320 315 311 312 312 307 301 294 285 282 286 282 280 274 274 270 275 274 275 275 276 283 285 279 295 295 298 312 322 322 322 326 329 332 334 336 338 340 338 nan nan nan nan nan nan nan nan nan nan nan nan nan nan nan nan nan nan nan nan nan nan nan nan nan nan nan nan nan nan
nan 323 333 322 302 295 290 287 281 283 291 303 299 303 315 324 317 312 315 318 314 309 300 294 292 289 290 283 281 278 277 279 282 273 279 276 270 270 267 278 285 288 297 312 320 319 321 326 330 333 334 336 338 338 337 338 340 nan nan nan nan nan nan nan nan nan nan nan nan nan nan nan nan nan nan nan nan nan nan nan nan nan nan nan nan
317 317 324 319 297 280 273 274 276 279 284 300 305 305 306 307 310 309 320 317 311 304 300 298 297 297 295 292 291 284 287 286 286 272 278 269 255 242 237 249 275 282 300 311 317 318 319 327 332 334 336 336 336 336 337 339 341 343 nan nan nan nan nan nan nan 341 nan nan nan nan nan nan nan nan nan nan nan nan nan nan nan nan 317 318 nan
311 311 311 299 268 261 266 271 277 284 293 308 312 307 301 305 304 309 310 306 302 297 300 300 299 300 299 299 297 289 294 299 290 263 272 257 236 221 220 244 265 283 299 307 312 313 319 326 332 335 335 336 336 336 338 340 341 342 344 nan nan nan nan nan nan nan 335 nan 332 331 nan nan nan nan nan nan nan nan nan nan nan nan 316 316 312
303 300 293 290 277 264 265 271 274 279 288 300 305 305 302 296 299 297 289 288 295 294 300 299 299 300 298 302 299 295 301 301 288 274 275 251 225 227 238 242 268 289 296 305 312 312 319 327 331 332 332 334 333 335 340 342 341 340 341 343 345 345 346 343 337 334 334 332 nan nan nan nan nan nan nan nan nan 316 nan nan 315 316 317 316 315
291 290 291 289 277 266 266 273 277 278 280 287 297 302 295 286 288 291 288 289 291 294 299 300 298 300 296 299 298 299 288 282 277 271 256 241 237 244 252 257 267 290 301 303 310 319 319 323 327 327 330 332 332 334 339 340 339 338 340 341 342 343 344 342 nan 331 332 nan nan nan nan nan nan nan nan 320 318 315 314 nan nan 318 318 318 318
281 285 291 297 292 271 262 269 275 274 276 277 285 293 289 280 282 285 283 285 284 293 300 303 300 299 299 300 295 288 279 273 267 264 260 255 252 248 241 242 259 290 300 307 313 319 316 312 320 325 327 327 329 333 336 336 335 337 338 340 341 341 342 341 333 330 330 330 nan nan nan nan nan nan 322 321 316 315 314 315 315 315 317 319 319
281 290 292 295 292 274 263 265 270 270 271 272 271 276 277 273 271 274 280 290 290 292 300 306 305 303 303 296 286 277 271 269 268 267 268 267 262 251 239 244 260 278 279 299 304 306 308 313 315 320 322 323 328 333 332 332 332 335 337 339 341 340 340 338 334 330 327 327 326 327 325 nan 323 325 327 322 318 315 313 315 314 313 314 317 319
292 296 296 293 294 276 258 257 259 263 265 265 263 271 282 283 277 279 286 291 289 295 302 309 314 312 296 289 286 278 275 274 273 274 271 267 256 247 243 249 266 274 278 284 291 299 308 314 316 319 321 325 330 331 333 335 333 333 336 337 339 340 339 336 334 330 328 327 328 326 325 329 331 334 329 326 324 323 321 316 314 312 315 316 317
265 281 287 286 283 269 253 251 255 262 270 270 269 271 277 283 277 275 282 287 290 295 301 308 317 309 293 288 284 284 280 282 281 271 262 261 255 243 238 244 255 265 276 279 289 305 312 313 319 322 328 331 332 331 332 331 335 340 337 337 338 338 335 335 335 334 331 329 327 327 324 328 331 331 328 328 326 325 324 323 320 318 317 316 314
269 273 270 268 266 256 250 252 256 262 268 271 275 276 278 285 282 279 282 282 287 293 300 306 309 300 295 293 289 287 285 285 278 271 263 256 247 239 235 242 255 270 272 276 297 312 314 316 320 326 331 333 332 331 330 332 337 342 339 335 333 332 333 334 335 336 335 330 328 326 325 325 326 327 322 318 321 324 323 320 317 317 319 318 316
237 241 249 260 263 255 250 253 259 265 268 276 283 284 288 290 287 284 275 276 285 291 295 298 299 300 302 298 290 288 290 284 281 272 257 249 246 240 238 245 260 264 267 285 305 309 314 320 323 328 332 330 329 329 331 335 339 340 339 335 330 331 331 333 334 336 336 334 330 328 328 327 325 329 322 316 312 313 316 316 315 315 315 316 319
250 246 247 247 244 243 252 265 271 274 281 284 282 286 290 291 289 277 271 274 280 284 287 291 292 297 301 298 292 291 288 286 276 266 257 252 250 245 240 242 246 255 272 291 302 313 318 322 325 328 328 326 328 326 332 336 339 337 336 335 329 328 330 332 334 334 334 333 331 329 330 330 323 320 320 317 314 315 313 307 304 302 304 308 313
261 261 260 256 251 244 247 259 269 277 275 272 274 279 282 281 279 278 277 278 280 282 280 281 286 292 294 293 293 292 290 281 273 267 261 257 253 242 242 245 251 265 282 296 308 316 319 320 322 323 323 324 324 324 331 335 336 335 334 331 327 325 325 328 329 330 330 330 329 331 331 330 326 324 322 319 317 315 310 306 304 302 302 303 306
256 266 268 266 259 252 250 252 255 261 265 268 273 276 277 278 277 280 280 279 281 280 278 276 280 286 290 292 293 292 288 280 272 267 264 260 254 251 252 251 255 263 275 287 299 309 316 319 320 320 322 322 318 322 330 333 334 332 330 323 320 319 320 322 325 326 327 328 329 330 330 328 326 325 324 325 320 313 309 306 301 297 299 303 307
245 251 249 248 251 252 254 253 252 255 261 264 268 272 274 275 275 277 279 278 276 275 275 276 280 284 288 289 288 288 286 283 276 269 266 262 257 256 254 253 261 271 283 298 307 311 313 315 317 319 321 317 314 324 331 333 331 330 321 315 313 313 316 319 323 325 326 326 328 329 330 328 325 324 324 324 323 315 306 303 303 307 308 307 307
236 238 249 262 258 248 243 244 245 248 254 258 263 266 268 270 274 276 278 276 273 273 274 276 279 282 286 285 282 282 283 282 277 275 270 262 258 256 260 262 273 281 293 302 301 303 306 311 316 319 317 315 317 325 332 332 331 328 325 321 316 314 316 318 321 323 323 324 327 333 329 327 324 323 324 323 322 314 309 308 307 308 308 305 301
235 nan 243 247 256 265 266 260 254 251 248 249 252 258 262 267 270 274 275 275 272 272 272 273 277 280 280 278 276 276 278 280 280 277 268 265 262 262 261 265 273 281 288 286 290 298 300 304 311 313 316 319 319 322 330 330 328 326 329 327 323 318 317 318 319 321 321 323 325 329 330 325 323 323 325 324 322 317 311 309 308 306 305 301 299
236 234 234 240 248 250 249 253 256 256 255 256 257 259 263 266 268 270 271 271 273 274 273 271 270 269 268 268 268 273 275 277 279 275 267 262 257 256 263 270 271 274 277 282 288 293 298 301 302 306 311 316 313 311 318 325 328 329 331 326 323 320 321 319 318 319 320 319 322 324 325 326 327 327 nan nan 324 320 313 308 306 305 303 303 295
234 234 232 236 240 249 255 256 257 259 261 263 263 264 267 267 265 262 263 268 273 272 267 262 259 261 265 268 266 270 275 274 272 270 264 259 258 262 267 270 270 269 275 280 285 287 292 294 294 297 303 305 307 309 314 323 326 327 329 324 321 321 319 318 317 316 318 318 320 321 nan 322 326 327 328 nan nan 320 318 311 306 304 302 300 300
234 235 237 237 239 242 244 245 250 251 249 249 254 266 267 266 264 263 262 263 263 258 253 253 255 259 264 265 265 266 270 268 264 261 261 262 261 266 270 269 268 274 279 279 277 281 285 286 287 293 300 301 302 309 311 317 322 325 326 324 318 319 318 316 314 313 314 316 318 318 318 319 323 326 327 325 324 321 305 294 307 313 302 295 300
231 232 233 237 240 240 242 243 244 250 256 255 253 250 248 252 259 264 263 265 262 254 250 251 254 256 259 263 263 265 264 261 261 262 263 262 261 264 265 266 270 273 275 274 276 279 283 286 288 291 294 296 299 302 309 312 319 321 323 322 319 315 315 313 313 312 315 317 316 315 316 nan nan nan 322 323 319 307 307 318 312 302 300 301 300
240 239 235 236 240 242 243 242 242 241 246 254 258 260 258 252 245 244 246 255 258 255 252 251 252 255 255 255 257 260 259 259 261 259 258 258 259 261 262 264 267 270 270 271 274 279 282 287 291 292 291 293 296 298 305 311 313 319 319 322 320 314 311 309 310 312 313 314 313 312 nan nan nan nan 318 315 305 312 312 311 302 301 300 301 299
241 239 240 242 242 240 243 244 240 242 245 246 253 259 259 261 259 255 251 251 254 254 251 250 250 252 253 251 253 256 257 256 257 257 256 255 256 259 259 259 263 265 268 272 275 278 282 286 289 291 291 293 296 297 298 304 311 314 318 322 318 310 310 307 309 308 308 309 nan nan nan 313 314 313 306 304 307 312 307 301 301 302 303 nan nan
245 244 243 246 247 247 243 240 238 235 235 241 247 251 260 261 261 262 261 259 255 250 248 248 248 250 251 252 255 257 256 254 253 251 253 253 256 256 258 259 261 264 267 271 275 277 281 285 287 288 291 293 294 293 294 299 305 311 315 322 317 307 297 298 300 300 nan nan nan 306 307 308 308 309 308 308 307 306 304 303 nan nan nan nan nan
245 247 249 250 251 251 248 248 247 243 242 240 241 246 251 253 253 251 252 252 251 249 246 243 246 248 249 251 258 258 254 250 249 247 246 247 249 252 256 258 260 264 267 271 275 278 281 285 287 288 290 292 293 294 296 300 304 308 312 315 nan nan 297 nan nan nan nan 300 300 303 306 308 308 307 306 306 303 303 305 306 nan nan nan nan nan
244 246 250 253 253 254 254 254 253 254 254 252 250 248 250 253 256 259 258 255 252 246 243 243 242 243 245 250 254 260 255 246 246 246 246 246 246 251 256 259 262 266 269 272 275 279 283 286 287 289 290 290 291 295 299 304 308 310 311 312 nan nan nan nan nan nan nan nan 302 302 303 305 306 306 306 307 308 308 309 nan nan nan nan nan nan
243 244 247 251 254 255 256 256 257 259 262 263 260 258 256 258 261 262 264 262 257 252 246 242 240 239 240 244 247 247 245 244 241 235 235 237 243 249 252 251 251 261 268 273 275 276 280 283 285 287 288 289 292 298 305 307 312 315 313 nan nan nan nan nan nan nan nan nan 302 304 306 307 309 311 312 313 312 nan nan nan nan nan nan nan nan
246 248 250 254 256 256 256 257 257 259 263 264 265 266 264 262 263 266 265 262 261 259 257 249 238 236 236 234 237 236 233 235 237 236 236 234 230 232 239 252 254 248 253 264 271 273 277 279 280 282 284 291 297 302 303 309 314 315 314 314 314 nan nan nan nan nan nan nan nan nan 312 312 313 314 316 nan nan nan nan nan nan nan nan nan nan
246 249 249 252 257 261 263 262 262 262 261 260 261 264 266 266 265 266 269 269 266 264 261 256 249 240 243 240 233 228 229 234 235 232 230 234 235 233 235 238 244 250 254 259 266 273 276 279 278 278 275 278 290 296 304 308 310 310 309 309 nan nan nan nan nan nan nan nan nan 313 314 315 315 315 nan nan nan nan nan nan nan nan nan nan nan